www.pogodaiklimat.ru

Погода и климат >> Архив погоды >> Сирия >> Damascus


АРХИВ ПОГОДЫ в Damascus

Время (UTC), дата Ветер
(напр.,м/с)
 
Видим.   Явления Облачность Т
(С)
Тd
(С)
f
(%)
Тe
(С)
Тes
(С)
Комфортность P
(гПа)
Po
(гПа)
Тmin
(С)
Tmax
(С)
R
(мм)
R24
(мм)
S
(см)
15 14.10 штиль 0 15 км ясно +27.8 +13.4 41 +30 +30 жарко 1011.1 942.9
18 14.10 СЗ 1 15 км ясно +23.2 +10.6 45 +25 +25 комфорт 1012.1 943.7 +29.8
21 14.10 штиль 0 15 км ясно +19.0 +12.0 64 +20 +20 тепло 1012.2 944.3
00 15.10 штиль 0 15 км ясно +16.6 +13.2 80 +17 +17 тепло 1012.5 944.6
03 15.10 штиль 0 15 км ясно +15.4 +13.0 86 +15 +15 по сезону 1013.1 944.8
06 15.10 ЮЗ 1 15 км ясно +17.6 +13.2 75 +19 +23 тепло 1014.2 945.6 +15.2
09 15.10 В 2 15 км ясно +26.7 +8.9 33 +27 +38 жарко 1013.3 945.3
12 15.10 З 1 15 км ясно +29.6 +6.9 24 +28 +37 жарко 1011.5 943.7
15 15.10 С 2 15 км 5/0
[Ci fib]
+26.9 +8.9 32 +27 +27 жарко 1011.8 943.6
18 15.10 Ю 5 15 км 4/0
[Ci fib]
+23.5 +13.2 52 +26 +26 жарко 1012.8 944.4 +30.5
21 15.10 ЮЗ 2 15 км 4/0
[Ci fib]
+21.0 +13.5 62 +24 +24 комфорт 1012.7 945.0
00 16.10 З 2 15 км ясно +18.0 +13.2 74 +19 +19 тепло 1012.2 944.7
03 16.10 ЮЗ 3 15 км ясно +17.6 +15.0 85 +18 +18 тепло 1012.8 944.8
06 16.10 ЮЗ 2 15 км ясно +19.0 +15.4 80 +21 +24 комфорт 1014.0 945.6 +17.2
09 16.10 ЮВ 2 10 км ясно +26.0 +13.8 47 +28 +39 жарко 1013.3 945.0
12 16.10 Ю 2 10 км ясно +28.8 +8.8 29 +29 +35 жарко 1012.0 943.6
15 16.10 ЮВ 2 10 км ясно +26.9 +8.8 32 +27 +27 жарко 1011.1 942.7
18 16.10 Ю 2 10 км ясно +23.1 +13.8 56 +27 +27 душно 1012.0 943.6 +30.0
21 16.10 Ю 4 10 км 5/3 900 м
[Sc Ac und]
+21.8 +15.0 65 +25 +25 комфорт 1012.6 944.1
00 17.10 Ю 5 10 км 4/3 900 м
[Sc Ac und]
+19.8 +16.0 79 +22 +22 комфорт 1012.1 944.6
03 17.10 ЮЗ 3 10 км ясно +18.2 +15.2 83 +19 +19 тепло 1011.0 943.3
06 17.10 ЮЗ 2 5000 м дымка ясно +19.4 +16.1 81 +22 +25 комфорт 1013.0 944.0 +18.4
09 17.10 СВ 3 7000 м ясно +25.8 +14.1 48 +28 +37 жарко 1010.9 943.3
12 17.10 С 3 6000 м 1/1 900 м
[Cu hum]
+30.0 +9.3 28 +30 +35 жарко 1008.6 941.5
15 17.10 штиль 0 7000 м 8/1 900 м
[Cu hum Ci sp]
+27.4 +10.7 35 +28 +28 жарко 1008.4 940.8
18 17.10 СВ 1 10 км 1/0
[Ac trans]
+24.6 +11.7 44 +26 +26 жарко 1010.0 942.2 +30.0
21 17.10 СВ 7 10 км ясно +22.4 +11.4 50 +25 +25 комфорт 1010.5 943.0
00 18.10 штиль 0 10 км ясно +20.0 +10.4 54 +21 +21 комфорт 1010.6 943.4
03 18.10 штиль 0 10 км ясно +16.8 +11.1 69 +17 +17 тепло 1010.7 942.8
06 18.10 СВ 2 7000 м ясно +21.0 +10.4 51 +24 +27 комфорт 1011.4 943.5 +16.6
09 18.10 В 7 10 км 5/0
[Ci sp]
+26.8 +8.8 32 +27 +30 жарко 1010.5 943.2
12 18.10 С 3 10 км 6/0
[Ci sp]
+29.0 +7.6 26 +28 +33 жарко 1008.6 941.4
15 18.10 С 3 10 км 6/0
[Ac trans Ci sp]
+27.4 +9.2 32 +28 +28 жарко 1008.8 940.9
18 18.10 СВ 7 10 км 6/0
[Ac trans Ci sp]
+25.2 +7.9 33 +25 +25 комфорт 1009.4 941.8 +29.0
21 18.10 СВ 4 7000 м 4/0
[Ac trans Ci sp]
+21.0 +10.4 51 +23 +23 комфорт 1011.7 944.2
00 19.10 СВ 4 7000 м 4/0
[Ac trans Ci sp]
+21.0 +10.4 51 +23 +23 комфорт 1011.7 944.2
03 19.10 штиль 0 10 км ясно +17.0 +9.6 62 +17 +17 тепло 1011.3 943.4
06 19.10 штиль 0 15 км ясно +18.2 +10.6 61 +18 +22 тепло 1012.8 944.5 +15.0
06 20.10 СВ 3 15 км ясно +18.7 +11.6 63 +20 +22 тепло 1012.4 943.9 +11.5
09 20.10 СВ 3 10 км 8/4 900 м
[Cu hum Ci fib]
+24.2 +12.0 46 +26 +30 жарко 1012.3 944.1
12 20.10 СВ 4 10 км 9/4 900 м
[Cu hum Ac trans Ci sp]
+28.0 +11.1 35 +29 +30 жарко 1009.6 941.9
15 20.10 СВ 4 10 км 8/3 900 м
[Cu hum Ac trans Ci fib]
+25.8 +10.6 38 +27 +27 жарко 1009.9 941.9
18 20.10 С 6 4000 м ливневой дождь, в посл. час гроза 9/6 800 м
[Cb cap Ac und Ci ing]
+19.0 +15.1 78 +20 +20 тепло 1013.8 944.9 +28.2 3
21 20.10 СЗ 1 15 км 6/3 900 м
[Cu hum Ci fib]
+17.0 +11.7 71 +18 +18 тепло 1010.5 942.3
00 21.10 С 1 15 км гроза без осадков 6/4 800 м
[Cb cap Ac lent]
+15.0 +12.8 87 +15 +15 тепло 1010.0 942.0 2
03 21.10 Ю 2 15 км 4/4 900 м
[Cu hum]
+14.0 +12.2 89 +13 +13 по сезону 1007.7 942.0
06 21.10 С 1 15 км 9/4 900 м
[Cu hum Ac trans Ci sp]
+19.2 +13.5 70 +22 +23 комфорт 1013.2 944.1 +13.8
12 21.10 штиль 0 10 км 8/3 900 м
[Cu hum Ci fib]
+22.2 +14.7 62 +26 +31 душно 1011.9 943.1

 

Местоположение метеостанции Damascus (Сирия): широта 33.42 долгота 36.52 высота над уровнем моря 609 м.

В архиве по умолчанию представлена погода в Damascus за последнюю неделю. Архивные данные за месяц целиком и за предыдущие месяцы, начиная с января 2011 года, Вы можете получить, выбрав интересующий диапазон дат из раскрывающегося списка и нажав кнопку "Ввод!".


*Определитесь, кто Вы:
робот инопланетянин человек

Внимание! Время в таблицах - всемирное. Для получения местного времени необходимо прибавить поправку, которая в Damascus равна 2 ч.

Смотрите также архив погоды в соседних городах и на ближайших метеорологических станциях:

Погода в Nabk (Сирия) (70 км)
Погода в Haouch-Al-Oumara (Ливан) (76 км)
Погода в Daraa (Сирия) (99 км)
Погода в Beyrouth (Ливан) (105 км)
Погода в Safed (Израиль) (107 км)
Погода в Irbed (Иордания) (115 км)
Погода в Al-Mafraq (Иордания) (119 км)
Погода в Tripoli (Ливан) (131 км)
Погода в Safawi (Иордания) (147 км)
Погода в Safita (Сирия) (160 км)

Пояснения к столбцам:

Ветер - указаны скорость ветра в м/с - средняя за 10 мин, порывы в срок и между сроками (в фигурных скобках) и направление, откуда дует ветер: С - северный, СВ - северо-восточный, В - восточный, ЮВ - юго-восточный, Ю - южный, ЮЗ - юго-западный, З - западный, СЗ - северо-западный.
Видимость - горизонтальная дальность видимости в метрах или километрах. При видимости от 1 до 10 км при отсутствии осадков обычно наблюдается дымка, при ухудшении видимости до 1 км и менее - туман. В сухую погоду видимость может ухудшаться дымом, пылью или мглою.
Явления - указаны атмосферные явления, наблюдавшиеся в срок или в последний час перед сроком; фигурными скобками обозначены явления, наблюдавшиеся между сроками (за 1-3 часа до срока); квадратными скобками обозначены град или гололедные отложения с указанием их диаметра в мм.
Облачность - указаны через наклонную черту общая и нижняя облачность в баллах и высота нижней границы облаков в метрах; квадратными скобками обозначены формы облаков: Ci - перистые, Cs - перисто-слоистые, Cc - перисто-кучевые, Ac - высококучевые, As - высокослоистые, Sc - слоисто-кучевые, Ns - слоисто-дождевые, Cu - кучевые, Cb - кучево-дождевые. Подробнее классификацию облаков см. в Атласе облаков (PDF).
T - Температура воздуха - температура, измеренная на высоте 2 м над землей.
Td - Температура точки росы - температура, при понижении до которой содержащийся в воздухе водяной пар достигнет насыщения.
f - Относительная влажность воздуха - влажноcть воздуха, измеренная на высоте 2 м над землей.
Te - Эффективная температура - температура, которую ощущает одетый по сезону человек в тени. Характеристика душности погоды. При расчете учитывается влияние влажности воздуха и скорости ветра на теплоощущения человека.
Tes - Эффективная температура на солнце - температура, которую ощущает человек, с поправкой на солнечный нагрев. Характеристика знойности погоды. Зависит от высоты солнца над горизонтом, облачности и скорости ветра. Ночью, в пасмурную погоду, а также при ветре 12 м/с и более поправка равна нулю.
P - Атмосферное давление - приведенное к уровню моря атмосферное давление.
Po - Атмосферное давление - измеренное на уровне метеостанции атмосферное давление.
Tmin - Минимальная температура - минимум температуры воздуха на высоте 2 м над землей.
Tmax - Максимальная температура - максимум температуры воздуха на высоте 2 м над землей.
R - Количество осадков - Количество выпавших осадков за период времени, мм. При наведении курсора мыши на число - период времени, за который выпало указанное количество осадков.
R24 - Количество осадков - Количество выпавших осадков за 24 часа, мм.
S - Снежный покров - Высота снежного покрова, см. При наведении курсора мыши на число - состояние снежного покрова и степень покрытия местности в баллах.